SAR-Lupe-1 - Orbit

View from above orbital plane
View from above orbital plane
View from above satellite
View from above satellite

Ground track
Ground track

The orbit data is extracted from the following two-line orbital elements,

1 29658U 06060A   13161.95618706 0.00000000  00000-0  00000-0 0    09
2 29658  98.1379  56.6429 0001000 179.6128 180.3870 15.27730575    05
Epoch (UTC): 10 June 2013 22:56:54
Eccentricity: 0.0001000
inclination: 98.1379°
perigee height: 482 km
apogee height: 483 km
right ascension of ascending node: 56.6429°
argument of perigee: 179.6128°
revolutions per day: 15.27730575
mean anomaly at epoch: 180.3870°
orbit number at epoch: 0

The dashed part of the orbit path shows where the satellite is in the earth's shadow,  

Developed and maintained by Chris Peat, Heavens-Above GmbH. Please read the updated FAQ before sending e-mail. Imprint. DLR